�������C�����ː����j�^�v���󋵏��
Date,Time,Cs137(Bq/L),Cs134(Bq/L),�S��(Bq/L)
2020/04/14,00:00,0.36,ND,18
2020/04/14,00:10,0.37,ND,18
2020/04/14,00:20,0.39,ND,24
2020/04/14,00:30,0.37,ND,23
2020/04/14,00:40,0.38,ND,25
2020/04/14,00:50,0.39,ND,24
2020/04/14,01:00,0.40,ND,27
2020/04/14,01:10,0.40,ND,26
2020/04/14,01:20,0.41,ND,22
2020/04/14,01:30,0.42,ND,22
2020/04/14,01:40,0.42,ND,25
2020/04/14,01:50,0.42,ND,28
2020/04/14,02:00,0.42,ND,27
2020/04/14,02:10,0.43,ND,27
2020/04/14,02:20,0.41,ND,28
2020/04/14,02:30,0.41,ND,29
2020/04/14,02:40,0.43,ND,23
2020/04/14,02:50,0.44,ND,22
2020/04/14,03:00,0.43,ND,21
2020/04/14,03:10,0.46,ND,22
2020/04/14,03:20,0.48,ND,24
2020/04/14,03:30,0.47,ND,23
2020/04/14,03:40,0.47,ND,24
2020/04/14,03:50,0.48,ND,24
2020/04/14,04:00,0.50,ND,24
2020/04/14,04:10,0.49,ND,27
2020/04/14,04:20,0.50,ND,23
2020/04/14,04:30,0.51,ND,24
2020/04/14,04:40,0.50,ND,25
2020/04/14,04:50,0.49,ND,23
2020/04/14,05:00,0.48,ND,23
2020/04/14,05:10,0.48,ND,22
2020/04/14,05:20,0.49,ND,24
2020/04/14,05:30,0.48,ND,22
2020/04/14,05:40,0.48,ND,23
2020/04/14,05:50,0.49,ND,21
2020/04/14,06:00,0.50,ND,23
2020/04/14,06:10,0.48,ND,23
2020/04/14,06:20,0.46,ND,22
2020/04/14,06:30,0.46,ND,23
2020/04/14,06:40,0.47,ND,23
2020/04/14,06:50,0.46,ND,24
2020/04/14,07:00,0.48,ND,20
2020/04/14,07:10,0.49,ND,19
2020/04/14,07:20,0.51,ND,21
2020/04/14,07:30,0.51,ND,20
2020/04/14,07:40,0.50,ND,20
2020/04/14,07:50,0.51,ND,19
2020/04/14,08:00,0.49,ND,20
2020/04/14,08:10,0.51,ND,20
2020/04/14,08:20,0.51,ND,18
2020/04/14,08:30,0.53,ND,18
2020/04/14,08:40,0.54,ND,19
2020/04/14,08:50,0.54,ND,23
2020/04/14,09:00,0.55,ND,25
2020/04/14,09:10,0.54,ND,23
2020/04/14,09:20,0.53,ND,22
2020/04/14,09:30,0.53,ND,21
2020/04/14,09:40,0.52,ND,21
2020/04/14,09:50,0.53,ND,18
2020/04/14,10:00,0.51,ND,19
2020/04/14,10:10,0.49,ND,20
2020/04/14,10:20,0.49,ND,23
2020/04/14,10:30,0.51,ND,24
2020/04/14,10:40,0.51,ND,25
2020/04/14,10:50,0.49,ND,27
2020/04/14,11:00,0.53,ND,23
2020/04/14,11:10,0.54,ND,25
2020/04/14,11:20,0.55,ND,23
2020/04/14,11:30,0.55,ND,24
2020/04/14,11:40,0.56,ND,23
2020/04/14,11:50,0.56,ND,22
2020/04/14,12:00,0.56,ND,24
2020/04/14,12:10,0.56,ND,26
2020/04/14,12:20,0.56,ND,28
2020/04/14,12:30,0.55,ND,27
2020/04/14,12:40,0.56,ND,26
2020/04/14,12:50,0.58,ND,28
2020/04/14,13:00,0.58,ND,28
2020/04/14,13:10,0.58,ND,23
2020/04/14,13:20,0.59,ND,22
2020/04/14,13:30,0.60,ND,22
2020/04/14,13:40,0.60,ND,24
2020/04/14,13:50,0.59,ND,23
2020/04/14,14:00,0.59,ND,20
2020/04/14,14:10,0.59,ND,21
2020/04/14,14:20,0.58,ND,24
2020/04/14,14:30,0.57,ND,25
2020/04/14,14:40,0.56,ND,22
2020/04/14,14:50,0.58,ND,21
2020/04/14,15:00,0.57,ND,22
2020/04/14,15:10,0.56,ND,26
2020/04/14,15:20,0.55,ND,23
2020/04/14,15:30,0.54,ND,20
2020/04/14,15:40,0.56,ND,21
2020/04/14,15:50,0.55,ND,20
2020/04/14,16:00,0.54,ND,20
2020/04/14,16:10,0.53,ND,18
2020/04/14,16:20,0.54,ND,18
2020/04/14,16:30,0.56,ND,21
2020/04/14,16:40,0.54,ND,23
2020/04/14,16:50,0.53,ND,22
2020/04/14,17:00,0.56,ND,20
2020/04/14,17:10,0.55,ND,19
2020/04/14,17:20,0.53,ND,18
2020/04/14,17:30,0.53,ND,18
2020/04/14,17:40,0.51,ND,14
2020/04/14,17:50,0.50,ND,16
2020/04/14,18:00,0.48,ND,17
2020/04/14,18:10,0.47,ND,20
2020/04/14,18:20,0.48,ND,21
2020/04/14,18:30,0.49,ND,22
2020/04/14,18:40,0.49,ND,24
2020/04/14,18:50,0.49,ND,25
2020/04/14,19:00,0.49,ND,27
2020/04/14,19:10,0.49,ND,25
2020/04/14,19:20,0.48,ND,25
2020/04/14,19:30,0.46,ND,24
2020/04/14,19:40,0.46,ND,27
2020/04/14,19:50,0.49,ND,28
2020/04/14,20:00,0.50,ND,27
2020/04/14,20:10,0.50,ND,28
2020/04/14,20:20,0.50,ND,28
2020/04/14,20:30,0.49,ND,27
2020/04/14,20:40,0.50,ND,25
2020/04/14,20:50,0.50,ND,23
2020/04/14,21:00,0.48,ND,25
2020/04/14,21:10,0.48,ND,24
2020/04/14,21:20,0.48,ND,24
2020/04/14,21:30,0.49,ND,23
2020/04/14,21:40,-,-,22
2020/04/14,21:50,-,-,23
2020/04/14,22:00,-,-,22
2020/04/14,22:10,-,-,23
2020/04/14,22:20,-,-,23
2020/04/14,22:30,-,-,25
2020/04/14,22:40,-,-,25
2020/04/14,22:50,-,-,23
2020/04/14,23:00,-,-,21
2020/04/14,23:10,-,-,23
2020/04/14,23:20,-,-,24
2020/04/14,23:30,-,-,25
2020/04/14,23:40,-,-,24
2020/04/14,23:50,-,-,27
